Powrót do katalogu

FIRESAT2

AktywnyNaukaSSO
NORAD 69873·PAYLOAD·🇺🇸 United States

Wystrzelony Jul 7, 2026 z Vandenberg Space Force Base

Loading…

Następne Przeloty (najbliższe 24 godziny)

TLE

ŚwieżeSource: Space-Track

Epoka: Sep 12, 2026, 03:52 UTC

1 69873U 26156E   26255.16170851  .00000673  00000-0  73314-4 0  9990
2 69873  97.7496 154.4862 0005998 294.5243  65.5350 14.91220200  9966

Śledź FIRESAT2 w czasie rzeczywistym z AllMySat

Download on the App Store